User: anonymous   Login
Location: Bullenkuhlen
(53.7689°N, 9.7495°E)
Time: 21:03:08
(UTC+00:00)
Language:

Cosmos 2181 Rocket - Orbit

View from above orbital plane
View from above orbital plane
View from above satellite
View from above satellite

Ground track
Ground track

The orbit data is extracted from the following two-line orbital elements,

1 21903U 92012B   20185.50139054  .00000011  00000-0 -37550-5 0  9990
2 21903  82.9375  79.7872 0041630 231.1570 303.3752 13.74518172420361
Epoch (UTC): 03 July 2020 12:02:00
Eccentricity: 0.0041630
inclination: 82.9375°
perigee height: 953 km
apogee height: 1014 km
right ascension of ascending node: 79.7872°
argument of perigee: 231.1570°
revolutions per day: 13.74518172
mean anomaly at epoch: 303.3752°
orbit number at epoch: 42036

The dashed part of the orbit path shows where the satellite is in the earth's shadow,  

DLR